CCM32DP LFKJ-LFPO

Flight info

Callsign CCM32DP
Flight time N/A
Altitude 36000
Route LONSU M622 PIGOS DCT BARSO DCT OKTET DCT GIPNO DCT BULOL DCT IDAVO DCT ARDOL
Aircraft A320/M-SDE3FGHIRWY/LB1

Departure

Time 2026-04-30 14:45
Airport Ajaccio Napoléon Bonaparte airport (LFKJ)

Arrival

Time N/A
Airport Paris-Orly Airport (LFPO)
Time Latitude Longitude Altitude Speed Heading
2026-04-30 14:10 41.91844 8.79507 26 ft 0 kts 346°
2026-04-30 14:40 41.91860 8.79566 27 ft 8 kts 71°
2026-04-30 14:40 41.91900 8.79609 27 ft 7 kts 24°
2026-04-30 14:40 41.91941 8.79634 28 ft 6 kts 24°
2026-04-30 14:40 41.91998 8.79670 28 ft 19 kts 25°
2026-04-30 14:41 41.92125 8.79750 31 ft 20 kts 25°
2026-04-30 14:41 41.92205 8.79800 27 ft 19 kts 25°
2026-04-30 14:41 41.92318 8.79869 29 ft 17 kts 25°
2026-04-30 14:41 41.92454 8.79953 26 ft 15 kts 25°
2026-04-30 14:42 41.92519 8.79994 29 ft 15 kts 25°
2026-04-30 14:42 41.92610 8.80051 27 ft 14 kts 25°
2026-04-30 14:42 41.92732 8.80128 27 ft 22 kts 29°
2026-04-30 14:42 41.92842 8.80245 27 ft 19 kts 46°
2026-04-30 14:43 41.92919 8.80351 29 ft 12 kts 45°
2026-04-30 14:43 41.92962 8.80427 31 ft 9 kts 70°
2026-04-30 14:43 41.92954 8.80504 32 ft 10 kts 112°
2026-04-30 14:43 41.92912 8.80559 31 ft 8 kts 167°
2026-04-30 14:44 41.92851 8.80533 29 ft 12 kts 205°
2026-04-30 14:44 41.92606 8.80380 29 ft 75 kts 205°
2026-04-30 14:44 41.91934 8.79961 19 ft 135 kts 205°
2026-04-30 14:44 41.91017 8.79397 463 ft 147 kts 205°
2026-04-30 14:45 41.90254 8.78511 1106 ft 149 kts 242°
2026-04-30 14:45 41.89810 8.77249 1801 ft 150 kts 241°
2026-04-30 14:45 41.89272 8.75979 2159 ft 170 kts 240°
2026-04-30 14:45 41.88631 8.74527 2456 ft 192 kts 239°
2026-04-30 14:46 41.87904 8.72886 2729 ft 218 kts 239°
2026-04-30 14:46 41.87083 8.71037 3114 ft 243 kts 239°
2026-04-30 14:46 41.86177 8.68999 3632 ft 264 kts 238°
2026-04-30 14:46 41.85223 8.66848 4459 ft 272 kts 239°
2026-04-30 14:47 41.84293 8.64611 5350 ft 278 kts 248°
2026-04-30 14:47 41.83968 8.62056 6242 ft 282 kts 275°
2026-04-30 14:47 41.84523 8.59556 7163 ft 281 kts 302°
2026-04-30 14:47 41.85826 8.57648 8132 ft 279 kts 327°
2026-04-30 14:48 41.87556 8.56489 9106 ft 278 kts 336°
2026-04-30 14:48 41.89330 8.55444 10080 ft 279 kts 336°
2026-04-30 14:48 41.91114 8.54399 10922 ft 281 kts 335°
2026-04-30 14:48 41.92928 8.53336 11528 ft 294 kts 335°
2026-04-30 14:49 41.94869 8.52191 11843 ft 314 kts 335°
2026-04-30 14:49 41.96899 8.50991 12486 ft 322 kts 335°
2026-04-30 14:49 41.98966 8.49767 13254 ft 326 kts 334°
2026-04-30 14:49 42.01053 8.48530 14024 ft 330 kts 334°
2026-04-30 14:50 42.05289 8.46011 15398 ft 336 kts 334°
2026-04-30 14:50 42.07440 8.44730 16068 ft 340 kts 334°
2026-04-30 14:51 42.11800 8.42125 17410 ft 346 kts 334°
2026-04-30 14:51 42.14012 8.40806 18060 ft 350 kts 334°
2026-04-30 14:51 42.18512 8.38120 19225 ft 357 kts 334°
2026-04-30 14:52 42.20790 8.36760 19803 ft 360 kts 334°
2026-04-30 14:52 42.25408 8.34002 20954 ft 366 kts 333°
2026-04-30 14:52 42.27746 8.32599 21535 ft 369 kts 333°
2026-04-30 14:53 42.32477 8.29757 22678 ft 375 kts 333°
2026-04-30 14:53 42.34871 8.28317 23240 ft 378 kts 332°
2026-04-30 14:54 42.39717 8.25404 24254 ft 384 kts 332°
2026-04-30 14:54 42.44628 8.22452 25160 ft 389 kts 332°
2026-04-30 14:55 42.49600 8.19453 26031 ft 393 kts 332°
2026-04-30 14:55 42.52066 8.17963 26449 ft 395 kts 332°
2026-04-30 14:55 42.57158 8.14880 27273 ft 400 kts 332°
2026-04-30 14:56 42.62267 8.11778 28070 ft 404 kts 331°
2026-04-30 14:56 42.67430 8.08639 28850 ft 409 kts 331°
2026-04-30 14:57 42.70030 8.07060 29227 ft 411 kts 331°
2026-04-30 14:57 42.75274 8.03873 29963 ft 415 kts 331°
2026-04-30 14:58 42.80500 8.00501 30587 ft 416 kts 328°
2026-04-30 14:58 42.82629 7.98929 30822 ft 417 kts 327°
2026-04-30 14:58 42.87671 7.94962 31368 ft 420 kts 326°
2026-04-30 14:59 42.92747 7.90967 31983 ft 421 kts 327°
2026-04-30 15:00 43.00394 7.85128 33078 ft 419 kts 328°
2026-04-30 15:00 43.05483 7.81263 33778 ft 418 kts 327°
2026-04-30 15:01 43.10551 7.77385 34416 ft 417 kts 327°
2026-04-30 15:01 43.11654 7.76536 34552 ft 417 kts 327°
2026-04-30 15:01 43.15247 7.73757 34945 ft 417 kts 328°
2026-04-30 15:02 43.17006 7.72395 35127 ft 416 kts 328°
2026-04-30 15:02 43.19048 7.70813 35350 ft 416 kts 328°
2026-04-30 15:03 43.24136 7.66862 35865 ft 416 kts 327°
2026-04-30 15:03 43.27761 7.63995 36162 ft 416 kts 328°
2026-04-30 15:04 43.36898 7.56960 36174 ft 407 kts 328°
2026-04-30 15:06 43.47201 7.48880 36167 ft 407 kts 328°
2026-04-30 15:07 43.57062 7.41174 36181 ft 407 kts 328°
2026-04-30 15:08 43.66784 7.33161 36189 ft 407 kts 324°
2026-04-30 15:09 43.76427 7.24105 36185 ft 408 kts 324°
2026-04-30 15:10 43.84388 7.16793 36182 ft 407 kts 324°
2026-04-30 15:11 43.97299 7.04908 36187 ft 407 kts 324°
2026-04-30 15:13 44.07331 6.95585 36188 ft 407 kts 324°
2026-04-30 15:14 44.20927 6.82929 36195 ft 409 kts 324°
2026-04-30 15:17 44.40885 6.64169 36180 ft 410 kts 324°
2026-04-30 15:19 44.58565 6.47425 36158 ft 412 kts 324°